Faribault, MN

6:36 AM CST on December 04, 2016 (GMT -0600)
Faribault Municipal

Weather History for KFBL - October, 2012

Change the Weather History Date:

Sunday, October 28, 2012

  Actual Average Record
Temperature  
Mean Temperature 34 °F -  
Max Temperature 46 °F 55 °F 73 °F (1948)
Min Temperature 21 °F 32 °F 15 °F (1969)
Degree Days  
Heating Degree Days 32    
Moisture  
Dew Point 24 °F    
Average Humidity 71    
Maximum Humidity 100    
Minimum Humidity 43    
Precipitation  
Precipitation 0.00 in - - ()
Sea Level Pressure  
Sea Level Pressure 30.31 in    
Wind  
Wind Speed 3 mph (SSE)    
Max Wind Speed 12 mph    
Max Gust Speed 18 mph    
Visibility 10 miles    
Events      
Averages and records for this station are not official NWS values.
T = Trace of Precipitation, MM = Missing Value Source: NWS Daily Summary

Daily Weather History Graph

Daily Weather History Graph

Search for Another Location

Airport or City:

Trip Planner

Search our weather history database for the weather conditions in past years. The results will help you decide how hot, cold, wet, or windy it might be!

Date:

Astronomy

Oct. 28, 2012 Rise Set
Actual Time 7:45 AM CDT 6:07 PM CDT
Civil Twilight 7:15 AM CDT 6:37 PM CDT
Nautical Twilight 6:41 AM CDT 7:11 PM CDT
Astronomical Twilight 6:07 AM CDT 7:45 PM CDT
Moon 5:25 PM CDT (10/28) 6:38 AM CDT (10/28)
Length of Visible Light 11h 21m
Length of Day
10h 21m
Waxing Gibbous, 99% of the Moon is Illuminated
Oct 28
Waxing Gibbous
Oct 29
Full
Nov 6
Last Quarter
Nov 13
New
Nov 20
First Quarter

Hourly Weather History & Observations

Time (CDT) Temp. Windchill Dew Point Humidity Pressure Visibility Wind Dir Wind Speed Gust Speed Precip Events Conditions
12:14 AM 26.6 °F - 24.8 °F 93% 30.33 in 10.0 mi Calm Calm - N/A   Clear
12:54 AM 26.6 °F - 23.0 °F 86% 30.33 in 10.0 mi Calm Calm - N/A   Clear
1:14 AM 24.8 °F - 23.0 °F 93% 30.33 in 10.0 mi Calm Calm - N/A   Clear
1:34 AM 24.8 °F - 23.0 °F 93% 30.33 in 10.0 mi Calm Calm - N/A   Clear
1:54 AM 24.8 °F - 23.0 °F 93% 30.33 in 10.0 mi Calm Calm - N/A   Clear
2:14 AM 24.8 °F - 21.2 °F 86% 30.33 in 10.0 mi Calm Calm - N/A   Clear
2:34 AM 24.8 °F - 23.0 °F 93% 30.33 in 10.0 mi Calm Calm - N/A   Clear
2:54 AM 23.0 °F - 21.2 °F 93% 30.33 in 10.0 mi Calm Calm - N/A   Clear
3:14 AM 24.8 °F - 23.0 °F 93% 30.32 in 10.0 mi Calm Calm - N/A   Clear
3:33 AM 21.2 °F - 21.2 °F 100% 30.32 in 10.0 mi Calm Calm - N/A   Clear
3:54 AM 24.8 °F - 23.0 °F 93% 30.32 in 10.0 mi Calm Calm - N/A   Clear
4:14 AM 24.8 °F - 23.0 °F 93% 30.32 in 10.0 mi Calm Calm - N/A   Clear
4:34 AM 24.8 °F - 21.2 °F 86% 30.32 in 10.0 mi Calm Calm - N/A   Scattered Clouds
4:54 AM 21.2 °F - 21.2 °F 100% 30.32 in 10.0 mi Calm Calm - N/A   Scattered Clouds
5:14 AM 24.8 °F - 21.2 °F 86% 30.32 in 10.0 mi Calm Calm - N/A   Clear
5:34 AM 23.0 °F - 21.2 °F 93% 30.32 in 10.0 mi Calm Calm - N/A   Scattered Clouds
5:54 AM 23.0 °F - 21.2 °F 93% 30.32 in 10.0 mi Calm Calm - N/A   Scattered Clouds
6:14 AM 24.8 °F - 21.2 °F 86% 30.32 in 10.0 mi Calm Calm - N/A   Clear
6:34 AM 24.8 °F - 21.2 °F 86% 30.32 in 10.0 mi Calm Calm - N/A   Clear
6:54 AM 21.2 °F - 19.4 °F 93% 30.33 in 10.0 mi Calm Calm - N/A   Clear
7:14 AM 21.2 °F - 19.4 °F 93% 30.33 in 10.0 mi Calm Calm - N/A   Clear
7:33 AM 21.2 °F - 19.4 °F 93% 30.33 in 10.0 mi Calm Calm - N/A   Scattered Clouds
7:54 AM 23.0 °F - 19.4 °F 86% 30.34 in 10.0 mi Calm Calm - N/A   Overcast
8:14 AM 24.8 °F - 21.2 °F 86% 30.34 in 10.0 mi Calm Calm - N/A   Overcast
8:34 AM 28.4 °F - 24.8 °F 86% 30.34 in 10.0 mi Calm Calm - N/A   Overcast
8:54 AM 30.2 °F 25.4 °F 24.8 °F 80% 30.34 in 10.0 mi SE 4.6 mph - N/A   Overcast
9:14 AM 33.8 °F 30.8 °F 26.6 °F 75% 30.34 in 10.0 mi SE 3.5 mph - N/A   Overcast
9:34 AM 35.6 °F 31.7 °F 26.6 °F 70% 30.34 in 10.0 mi SSE 4.6 mph - N/A   Overcast
9:54 AM 37.4 °F 32.8 °F 26.6 °F 65% 30.34 in 10.0 mi SSE 5.8 mph - N/A   Mostly Cloudy
10:14 AM 37.4 °F 31.4 °F 26.6 °F 65% 30.34 in 10.0 mi SSE 8.1 mph - N/A   Scattered Clouds
10:34 AM 39.2 °F 32.5 °F 24.8 °F 56% 30.34 in 10.0 mi SSE 10.4 mph 16.1 mph N/A   Scattered Clouds
10:54 AM 39.2 °F 32.5 °F 26.6 °F 61% 30.34 in 10.0 mi SSE 10.4 mph - N/A   Mostly Cloudy
11:14 AM 41.0 °F 34.7 °F 24.8 °F 53% 30.34 in 10.0 mi SSE 10.4 mph - N/A   Overcast
11:34 AM 39.2 °F 32.5 °F 24.8 °F 56% 30.34 in 10.0 mi South 10.4 mph - N/A   Overcast
12:14 PM 41.0 °F 34.3 °F 24.8 °F 53% 30.33 in 10.0 mi SSE 11.5 mph 18.4 mph N/A   Overcast
12:34 PM 42.8 °F 38.6 °F 24.8 °F 49% 30.32 in 10.0 mi South 6.9 mph 16.1 mph N/A   Mostly Cloudy
12:54 PM 42.8 °F 37.0 °F 26.6 °F 53% 30.32 in 10.0 mi SSE 10.4 mph - N/A   Overcast
1:14 PM 44.6 °F 38.8 °F 24.8 °F 46% 30.31 in 10.0 mi SSW 11.5 mph - N/A   Overcast
1:34 PM 44.6 °F 38.8 °F 24.8 °F 46% 30.31 in 10.0 mi South 11.5 mph 16.1 mph N/A   Overcast
1:54 PM 44.6 °F 39.2 °F 24.8 °F 46% 30.31 in 10.0 mi South 10.4 mph - N/A   Overcast
2:14 PM 44.6 °F 39.7 °F 26.6 °F 49% 30.30 in 10.0 mi South 9.2 mph - N/A   Overcast
2:34 PM 44.6 °F 40.7 °F 24.8 °F 46% 30.29 in 10.0 mi SE 6.9 mph - N/A   Mostly Cloudy
2:54 PM 44.6 °F 40.2 °F 24.8 °F 46% 30.29 in 10.0 mi South 8.1 mph - N/A   Mostly Cloudy
3:13 PM 46.4 °F 43.5 °F 24.8 °F 43% 30.28 in 10.0 mi South 5.8 mph - N/A   Scattered Clouds
3:34 PM 44.6 °F 40.2 °F 24.8 °F 46% 30.28 in 10.0 mi South 8.1 mph - N/A   Clear
3:54 PM 46.4 °F 42.4 °F 24.8 °F 43% 30.28 in 10.0 mi South 8.1 mph - N/A   Clear
4:13 PM 44.6 °F 41.4 °F 24.8 °F 46% 30.28 in 10.0 mi SSE 5.8 mph - N/A   Clear
4:34 PM 44.6 °F 39.7 °F 24.8 °F 46% 30.27 in 10.0 mi South 9.2 mph - N/A   Clear
4:54 PM 44.6 °F 39.7 °F 24.8 °F 46% 30.27 in 10.0 mi South 9.2 mph - N/A   Clear
5:14 PM 44.6 °F 39.7 °F 24.8 °F 46% 30.27 in 10.0 mi South 9.2 mph - N/A   Clear
5:34 PM 42.8 °F 38.0 °F 24.8 °F 49% 30.27 in 10.0 mi SSE 8.1 mph - N/A   Clear
5:54 PM 41.0 °F 38.0 °F 24.8 °F 53% 30.27 in 10.0 mi SSE 4.6 mph - N/A   Scattered Clouds
6:14 PM 39.2 °F 37.0 °F 24.8 °F 56% 30.27 in 10.0 mi SE 3.5 mph - N/A   Scattered Clouds
6:33 PM 37.4 °F 33.8 °F 24.8 °F 60% 30.27 in 10.0 mi ESE 4.6 mph - N/A   Scattered Clouds
6:54 PM 35.6 °F 31.7 °F 24.8 °F 65% 30.27 in 10.0 mi ESE 4.6 mph - N/A   Mostly Cloudy
7:14 PM 35.6 °F - 24.8 °F 65% 30.28 in 10.0 mi Calm Calm - N/A   Mostly Cloudy
7:34 PM 35.6 °F 32.8 °F 24.8 °F 65% 30.28 in 10.0 mi ESE 3.5 mph - N/A   Scattered Clouds
7:54 PM 35.6 °F 32.8 °F 24.8 °F 65% 30.28 in 10.0 mi ESE 3.5 mph - N/A   Clear
8:13 PM 33.8 °F 29.6 °F 24.8 °F 70% 30.29 in 10.0 mi SE 4.6 mph - N/A   Clear
8:34 PM 33.8 °F 29.6 °F 24.8 °F 70% 30.29 in 10.0 mi SE 4.6 mph - N/A   Scattered Clouds
8:54 PM 33.8 °F 29.6 °F 24.8 °F 70% 30.29 in 10.0 mi SE 4.6 mph - N/A   Scattered Clouds
9:14 PM 32.0 °F 27.5 °F 24.8 °F 75% 30.29 in 10.0 mi SE 4.6 mph - N/A   Clear
9:34 PM 30.2 °F 23.4 °F 24.8 °F 80% 30.29 in 10.0 mi SE 6.9 mph - N/A   Scattered Clouds
9:54 PM 33.8 °F 29.6 °F 26.6 °F 75% 30.29 in 10.0 mi SE 4.6 mph - N/A   Mostly Cloudy
10:14 PM 30.2 °F 26.7 °F 24.8 °F 80% 30.30 in 10.0 mi ESE 3.5 mph - N/A   Scattered Clouds
10:33 PM 32.0 °F 28.7 °F 24.8 °F 75% 30.30 in 10.0 mi SE 3.5 mph - N/A   Clear
10:54 PM 33.8 °F - 24.8 °F 70% 30.30 in 10.0 mi Calm Calm - N/A   Clear
11:14 PM 33.8 °F - 24.8 °F 70% 30.30 in 10.0 mi Calm Calm - N/A   Clear
11:54 PM 30.2 °F - 23.0 °F 75% 30.30 in 10.0 mi Calm Calm - N/A   Clear